Starlink 4290

operational
NORAD ID: 53006 Int'l Des: 2022-076 Owner: SPXS Country: US Constellation: starlink
LEOCIRCULAR

关于 Starlink 4290

正在加载描述...

实时位置

正在加载3D地球...

即将过境

高度历史

Altitude vs Time

uPlot chart will show altitude changes over time

两行轨道根数

1 53006U 22076W 25306.28765669 .00002307 00000-0 16304-3 0 9995
2 53006 53.2166 306.0510 0001465 91.5557 268.5602 15.08835886183612
Epoch: Nov 2, 2025 • Age: 19 hours

当前状态

高度 545.3 km
速度 7.60 km/s
星下点 53.19°N, 39.65°W
发射日期 Jul 7, 2022
运行时间 3.3 years
类型 internet

技术详情

分类 Payload
质量 297.00 kg
干质量 275.00 kg
总质量 297.00 kg
长度 0.20 m
直径 2.80 m
跨度 9.00 m
形状 Box + pan
制造商 SPXS
平台类型 Starlink
阶段状态 In Orbit
所有者/国家 SPXS/US

大型星座

Loading constellations...